HST
1 20580U 90037B   24128.73881392  .00007122  00000-0  33982-3 0  9992
2 20580  28.4686 256.0211 0002089 327.7152  32.3312 15.17133605670889
ISS (ZARYA)
1 25544U 98067A   24129.34837963  .00014166  00000-0  24687-3 0  9999
2 25544  51.6381 152.9120 0003336 147.3897  50.7616 15.51003210452363
CXO
1 25867U 99040B   24130.83982923  .00000587  00000-0  00000-0 0  9994
2 25867  40.3330 157.4669 8931258 293.7855 359.8450  0.37811134 14429